Weather History for KTRI - September, 2012

Change the Weather History Date:

Monday, September 24, 2012

  Actual Average Record
Temperature  
Mean Temperature 54 °F 64 °F  
Max Temperature 69 °F 76 °F 92 °F (2007)
Min Temperature 39 °F 52 °F 34 °F (1983)
Degree Days  
Heating Degree Days 11 3  
Month to date heating degree days 28 26  
Since 1 July heating degree days 28 27  
Cooling Degree Days 0 2  
Month to date cooling degree days 111 106  
Year to date cooling degree days 1176 958  
Growing Degree Days 4 (Base 50)    
Moisture  
Dew Point 40 °F    
Average Humidity 65    
Maximum Humidity 100    
Minimum Humidity 30    
Precipitation  
Precipitation 0.00 in 0.09 in 0.81 in (1965)
Month to date precipitation 5.27 2.46  
Year to date precipitation 37.92 31.91  
Snow  
Snow 0.00 in 0.00 in - ()
Month to date snowfall 0.0 0.0  
Since 1 July snowfall 0.0 0.0  
Since 1 September snowfall 0.0 0.0  
Snow Depth 0.00 in    
Sea Level Pressure  
Sea Level Pressure 30.22 in    
Wind  
Wind Speed 1 mph (NW)    
Max Wind Speed 7 mph    
Max Gust Speed 10 mph    
Visibility 7 miles    
Events Fog    
T = Trace of Precipitation, MM = Missing Value Source: NWS Daily Summary

Daily Weather History Graph

Daily Weather History Graph

Search for Another Location

Airport or City:

Trip Planner

Search our weather history database for the weather conditions in past years. The results will help you decide how hot, cold, wet, or windy it might be!

Date:

Astronomy

Sep. 24, 2012 Rise Set
Actual Time 7:19 AM EDT 7:22 PM EDT
Civil Twilight 6:53 AM EDT 7:48 PM EDT
Nautical Twilight 6:23 AM EDT 8:18 PM EDT
Astronomical Twilight 5:53 AM EDT 8:48 PM EDT
Moon 4:00 PM EDT (9/24) 1:42 AM EDT (9/24)
Length of Visible Light 12h 54m
Length of Day
12h 03m
Waxing Gibbous, 70% of the Moon is Illuminated
Sep 24
Waxing Gibbous
Sep 29
Full
Oct 8
Last Quarter
Oct 15
New
Oct 21
First Quarter

Hourly Weather History & Observations

Time (EDT) Temp. Dew Point Humidity Pressure Visibility Wind Dir Wind Speed Gust Speed Precip Events Conditions
12:53 AM 45.0 °F 39.9 °F 82% 30.20 in 10.0 mi Calm Calm - N/A   Clear
1:53 AM 43.0 °F 39.9 °F 89% 30.21 in 10.0 mi Calm Calm - N/A   Clear
2:53 AM 42.1 °F 39.0 °F 89% 30.21 in 10.0 mi Calm Calm - N/A   Clear
3:53 AM 41.0 °F 37.9 °F 89% 30.21 in 10.0 mi Calm Calm - N/A   Clear
4:34 AM 41.0 °F 39.2 °F 93% 30.25 in 10.0 mi Calm Calm - N/A   Scattered Clouds
4:42 AM 41.0 °F 39.2 °F 93% 30.25 in 4.0 mi Calm Calm - N/A   Mostly Cloudy
4:53 AM 41.0 °F 39.0 °F 93% 30.22 in 4.0 mi Calm Calm - N/A   Overcast
5:45 AM 39.2 °F 37.4 °F 93% 30.26 in 10.0 mi Calm Calm - N/A   Scattered Clouds
5:53 AM 39.9 °F 37.9 °F 93% 30.23 in 10.0 mi Calm Calm - N/A   Partly Cloudy
6:40 AM 39.2 °F 37.4 °F 93% 30.27 in 0.5 mi Calm Calm - N/A Fog Fog
6:48 AM 39.2 °F 37.4 °F 93% 30.27 in 0.5 mi Calm Calm - N/A Fog Fog
6:53 AM 39.0 °F 37.9 °F 96% 30.24 in 0.1 mi Calm Calm - N/A Fog Fog
7:16 AM 41.0 °F 39.2 °F 93% 30.28 in 0.2 mi Calm Calm - N/A Fog Fog
7:27 AM 41.0 °F 39.2 °F 93% 30.28 in 0.1 mi Calm Calm - N/A Fog Fog
7:53 AM 41.0 °F 41.0 °F 100% 30.26 in 0.1 mi Calm Calm - N/A Fog Fog
8:09 AM 41.0 °F 39.2 °F 93% 30.29 in 0.1 mi Calm Calm - N/A Fog Fog
8:53 AM 43.0 °F 42.1 °F 97% 30.27 in 0.1 mi Calm Calm - N/A Fog Fog
9:28 AM 44.6 °F 42.8 °F 93% 30.30 in 0.1 mi Calm Calm - N/A Fog Fog
9:53 AM 46.0 °F 44.1 °F 93% 30.27 in 10.0 mi Calm Calm - N/A   Partly Cloudy
10:53 AM 55.0 °F 44.1 °F 67% 30.26 in 10.0 mi Calm Calm - N/A   Clear
11:53 AM 60.1 °F 39.9 °F 47% 30.25 in 10.0 mi NNW 4.6 mph - N/A   Clear
12:53 PM 62.1 °F 39.0 °F 43% 30.22 in 10.0 mi Calm Calm - N/A   Clear
1:53 PM 64.0 °F 41.0 °F 43% 30.20 in 10.0 mi SE 3.5 mph - N/A   Clear
2:53 PM 66.0 °F 39.9 °F 38% 30.17 in 10.0 mi Calm Calm - N/A   Clear
3:53 PM 68.0 °F 41.0 °F 37% 30.15 in 10.0 mi Calm Calm - N/A   Clear
4:53 PM 68.0 °F 36.0 °F 31% 30.13 in 10.0 mi Calm Calm - N/A   Clear
5:53 PM 66.9 °F 37.0 °F 33% 30.13 in 10.0 mi SW 4.6 mph - N/A   Clear
6:53 PM 64.9 °F 37.9 °F 37% 30.12 in 10.0 mi Calm Calm - N/A   Clear
7:53 PM 54.0 °F 42.1 °F 64% 30.14 in 10.0 mi North 3.5 mph - N/A   Clear
8:53 PM 50.0 °F 44.1 °F 80% 30.15 in 10.0 mi Calm Calm - N/A   Clear
9:53 PM 48.0 °F 43.0 °F 83% 30.16 in 10.0 mi Calm Calm - N/A   Clear
10:53 PM 46.0 °F 43.0 °F 89% 30.16 in 10.0 mi Calm Calm - N/A   Clear
11:53 PM 46.0 °F 43.0 °F 89% 30.16 in 10.0 mi Calm Calm - N/A   Clear